FENGYUN 1C DEB, 35167

Orbit data source: Space-Track

FENGYUN 1C DEB, 35167 is space debris in SSO originally from a launch on Mon, 10 May 1999 UTC launched from the Taiyaun Space Center, China (TSC). Fengyun 1C debris stems from the Chinese weather satellite Fengyun-1C, which was intentionally destroyed by a Chinese anti-satellite missile in 2007. This event dramatically increased the amount of space debris, with thousands of trackable fragments posing hazards to satellites and human spaceflight. The Fengyun 1C debris cloud has become a focal point in discussions about space sustainability and the need for international regulations to prevent the creation of new debris.

Loading next visibility...
Identifier
35167, 1999-025DMX
Orbit
SSO
Country
Flag of CNCN / PRC
Related business
Manufacturer
Unknown
Mission
Spacecraft
Bus & Motor
Unknown
Mass
Unknown
Launch date (UTC)
1999-05-10 (27 years ago)
Launch vehicle
Unknown
Launch site
Taiyaun Space Center, China (TSC)
Object type
Payload
Rocket body
Debris
Shape & HBR
Unknown shape, 0.1 m
Radar Cross Section
Small (<0.1 m²)

Expand to show TLE details & history
Last TLE update: 23 hours ago

TLE from 23 hours ago
0 FENGYUN 1C DEB
1 35167U 99025DMX 26207.43356723  .00000980  00000-0  29016-3 0  9995
2 35167  98.4615 200.0280 0226106 256.1202 101.4738 14.32011232732492
Epoch: 2026-07-26T10:24Z
TLE epoch observation values (Epoch: 2026-07-26T10:24:20.208Z)
Latitude
0.00003°
Longitude
99.81223°
Altitude
823.673 km
Speed
7.423 km/s
True Right ascension
13h 20m 06s
True Declination
0° 00' 00"
Sunlit
Object was in daylight at epoch
Visualization orbit readout
Latitude
Unknown
Longitude
Unknown
Altitude
Unknown
Speed
Unknown
Apparent Right ascension
Unknown
Apparent Declination
Unknown
Sunlit
N/A
Visualization observer readout
Local Sidereal Time
22:26:32
Azimuth
Unknown
Elevation
Unknown
Doppler factor
Unknown
Orbital elements
Apogee altitude
944.043 km
Perigee altitude
620.246 km
Semi-major axis
7,160.282 km
Eccentricity
0.02261
Inclination
98.4615°
RAAN
200.028°
Arg. of periapsis
256.1202°
True anomaly
103.99799°
Mean anomaly
101.4738°
Eccentric anomaly
102.73741°
Mean motion
3.58219 °/min
Orbital period
100.5 mins
BSTAR
0.00029016
Loading maneuver chart data...
Computing Atmospheric mass density...

Documentation

Showing up to 5 results
|